• MPC Preparation (Info)

  • MPEC 2023-F227 : 2023 FV10

    The following Minor Planet Electronic Circular may be linked-to from your own Web pages, but must not otherwise be redistributed electronically.

    A form allowing access to any MPEC is at the bottom of this page.


    Read MPEC 2023-F226 Read MPEC 2023-F228


    M.P.E.C. 2023-F227                               Issued 2023 March 30, 06:32 UT
    
         The Minor Planet Electronic Circulars contain information on unusual
             minor planets, routine data on comets and natural satellites,
             and occasional editorial announcements.  They are published
        on behalf of Division F of the International Astronomical Union by the
              Minor Planet Center, Smithsonian Astrophysical Observatory,
                              Cambridge, MA 02138, U.S.A.
    			  
                 Prepared using the Tamkin Foundation Computer Network
    
                                  MPC@CFA.HARVARD.EDU
                URL https://www.minorplanetcenter.net/    ISSN 1523-6714
    
                                    2023 FV10                                
    
    
    Observations:
         K23F10V*1C2023 03 28.39843715 02 30.732+07 42 35.39         20.08GVEF227G96
         K23F10V 1C2023 03 28.40353615 02 32.564+07 44 55.03         20.08GVEF227G96
         K23F10V 1C2023 03 28.40864715 02 34.400+07 47 14.60         20.11GVEF227G96
         K23F10V KC2023 03 28.43595015 02 44.113+07 59 39.59         20.28GVEF227I52
         K23F10V KC2023 03 28.43664815 02 44.358+07 59 58.45         20.11GVEF227I52
         K23F10V KC2023 03 28.43733415 02 44.624+08 00 17.28         20.42GVEF227I52
         K23F10V KC2023 03 28.43802615 02 44.833+08 00 36.40         19.90GVEF227I52
         K23F10V KC2023 03 28.48953115 03 03.308+08 23 58.42         19.42GVEF227I52
         K23F10V KC2023 03 28.49050915 03 03.604+08 24 25.13         19.54GVEF227I52
         K23F10V KC2023 03 28.49149615 03 03.974+08 24 51.84         20.02GVEF227I52
         K23F10V KC2023 03 28.49246315 03 04.334+08 25 18.12         20.28GVEF227I52
         K23F10V KC2023 03 29.29093615 08 42.57 +14 22 01.1          20.2 GVEF227H21
         K23F10V KC2023 03 29.29373215 08 43.60 +14 23 15.0          20.1 GVEF227H21
         K23F10V KC2023 03 29.29652815 08 44.62 +14 24 28.8          20.0 GVEF227H21
         K23F10V KC2023 03 29.35851115 09 09.87 +14 51 48.9          20.5 GXEF227858
         K23F10V KC2023 03 29.36307915 09 11.51 +14 53 48.6          20.3 GXEF227858
         K23F10V KC2023 03 29.36772315 09 13.19 +14 55 50.4          20.0 GXEF227858
         K23F10V KC2023 03 29.42342515 09 33.793+15 20 15.90         19.95GVEF227I52
         K23F10V KC2023 03 29.42425215 09 34.092+15 20 37.68         20.15GVEF227I52
         K23F10V KC2023 03 29.42507815 09 34.391+15 20 59.14         19.92GVEF227I52
         K23F10V KC2023 03 29.42590515 09 34.668+15 21 20.59         20.10GVEF227I52
         K23F10V KC2023 03 30.24825815 15 20.46 +21 08 34.1          20.4 VVEF227H21
         K23F10V KC2023 03 30.25105415 15 21.50 +21 09 43.1          20.2 VVEF227H21
    
    Observer details:
    858 Tebbutt Observatory, Edgewood.  Observer F. B. Zoltowski.  0.51-m f/8.1
        Schmidt-Cassegrain + CCD.
    G96 Mt. Lemmon Survey.  Observer G. J. Leonard.  Measurers E. J. Christensen,
        D. Fay, J. B. Fazekas, D. C. Fuls, A. R. Gibbs, A. D. Grauer, H. Groeller,
        J. K. Hogan, R. A. Kowalski, S. M. Larson, G. J. Leonard, D. Rankin, R. L.
        Seaman, A. Serrano, F. C. Shelly, K. W. Wierzchos.  1.5-m reflector + 10K
        CCD.
    H21 Astronomical Research Observatory, Westfield.  Observer R. Holmes.
        Measurers T. Linder, R. Holmes, L. Horn.  0.76-m f/3.0 astrograph + CCD.
    I52 Steward Observatory, Mt. Lemmon Station.  Observer J. B. Fazekas.
        Measurers E. J. Christensen, D. Fay, J. B. Fazekas, D. C. Fuls, A. R.
        Gibbs, A. D. Grauer, H. Groeller, J. K. Hogan, R. A. Kowalski, S. M.
        Larson, G. J. Leonard, D. Rankin, R. L. Seaman, A. Serrano, F. C. Shelly,
        K. W. Wierzchos.  1.0-m prime focus + CCD.
    
    Orbital elements:
    2023 FV10                                                Earth MOID = 0.0383 AU
    Epoch 2023 Feb. 25.0 TT = JDT 2460000.5                 Veres                   
    M 249.17940              (2000.0)            P               Q                  
    n   0.92372007     Peri.   90.21053     +0.09823389     +0.99426353             
    a   1.0441810      Node   185.94722     -0.99506964     +0.09871928             
    e   0.0477933      Incl.   24.10116     +0.01365711     +0.04116468             
    P   1.07           H   25.00          G   0.15           U   8                  
    Residuals in seconds of arc
    230328 G96  0.3-  0.2-    230328 I52  0.4-  0.2+    230329 858  0.2+  0.3-
    230328 G96  0.0   0.1+    230328 I52  0.2-  0.1+    230329 I52  0.1-  0.2-
    230328 G96  0.2+  0.1+    230328 I52  0.0   0.1+    230329 I52  0.0   0.0
    230328 I52  0.2+  0.1+    230329 H21  0.1-  0.0     230329 I52  0.0   0.1-
    230328 I52  0.2+  0.1-    230329 H21  0.1+  0.1+    230329 I52  0.2-  0.2-
    230328 I52  0.5+  0.0     230329 H21  0.1+  0.1+    230330 H21  0.0   0.1+
    230328 I52  0.0   0.3+    230329 858  0.1+  0.2+    230330 H21  0.0   0.1-
    230328 I52  0.5+  0.0     230329 858  0.0   0.1-
    
    Ephemeris:
    2023 FV10                a,e,i = 1.04, 0.05, 24                  q = 0.9943
    Date    TT    R. A. (2000) Decl.     Delta      r    Elong.  Phase     V
    2023 02 28    12 24 19.5 -64 46 21   0.2081  1.0618   104.5    64.6    24.0
    ...
    2023 03 15    13 35 20.1 -53 58 42   0.1083  1.0502   118.5    56.3    22.3
    ...
    2023 03 23    14 25 37.8 -29 07 43   0.06410 1.0438   136.3    41.2    20.7
    ...
    2023 03 29    15 06 38.3 +12 14 18   0.05420 1.0389   137.8    40.2    20.3
    2023 03 30    15 13 32.0 +19 26 38   0.05586 1.0381   134.2    43.6    20.5
    2023 03 31    15 20 24.5 +26 06 03   0.05841 1.0373   130.2    47.4    20.7
    ...
    2023 04 06    16 00 29.0 +52 29 16   0.08576 1.0325   109.7    65.8    22.1
    ...
    2023 04 14    16 47 54.8 +66 12 46   0.1347  1.0263    96.3    76.2    23.4
    ...
    2023 04 29    17 53 30.9 +74 11 32   0.2283  1.0153    85.6    81.4    24.7
    
    M. P. C. Staff               (C) Copyright 2023 MPC           M.P.E.C. 2023-F227
    


    Read MPEC 2023-F226 Read MPEC 2023-F228


    MPEC number:

    Enter an MPEC number in one of the following forms:

    • 1997-B01 (the full form)
    • J97B01 (the packed version of the full form)
    • B01 (the abbreviated form)